[[{"header":{"parameterUnit":"m.s-1","parameterCategory":2,"la1":30.2991,"la2":30.254,"lo1":-89.0895,"lo2":-89.0444,"dy":0.0017,"dx":0.0017,"nx":28,"ny":28,"refTime":"2025-06-10T03:00:00:Z","depth":"0","parameterNumber":2,"parameterNumberName":"U-component_of_CURRENTS"},"data":[0,0,0,0,0,0,0,0,0,0,0,0,0,0,0,0,0,0,0,0,0,0,0,0,0,0,0,0,0,0,0,0,0,0,0,0,0,0,0,0,0,0,0,0,0,0,0,0,0,0,0,0,0,0,0,0,0,0,0.3091,0.3092,0,0.3195,0.3196,0.3197,0.3214,0.3214,0.3213,0.3213,0.3249,0.325,0.3252,0,0,0,0,0,0,0,0,0,0,0,0,0,0.2892,0.2896,0.3091,0.3092,0.3094,0.3195,0.3196,0.3197,0.3214,0.3214,0.3213,0.3212,0.3249,0.325,0.3252,0,0,0,0,0,0,0,0,0,0,0,0,0,0.2982,0.2897,0.309,0.3118,0.3122,0.3194,0.3196,0.3197,0.3215,0.3214,0.3213,0.3212,0.3248,0.325,0.3252,0.3282,0,0,0.3259,0.326,0,0,0,0,0,0,0,0,0.2977,0.2989,0.3112,0.3116,0.312,0.3194,0.3139,0.3223,0.3215,0.3175,0.3213,0.3212,0.3228,0.3231,0.3248,0.3283,0.3285,0.3259,0.3261,0.3261,0.3262,0,0,0,0,0,0,0,0.2971,0.2984,0.3128,0.3114,0.3119,0.312,0.3131,0.3155,0.32,0.3179,0.3181,0.3199,0.3229,0.3246,0.3249,0.3286,0.3259,0.3261,0.3262,0.3263,0.3389,0.3391,0,0,0,0,0,0,0.2968,0.2979,0.3125,0.3131,0.305,0.3125,0.3137,0.3168,0.3202,0.3208,0.32,0.32,0.3243,0.3246,0.325,0.3307,0.3261,0.3264,0.3265,0.3387,0.3389,0.3391,0,0,0,0,0,0,0.2964,0.2981,0.3121,0.3059,0.3078,0.3129,0.3163,0.3171,0.3191,0.3219,0.3223,0.3213,0.3242,0.3247,0.3292,0.3308,0.3265,0.3266,0.3384,0.3387,0.339,0.3408,0,0,0,0,0,0,0.2958,0.2979,0.2995,0.306,0.3081,0.3171,0.3165,0.3173,0.3205,0.3206,0.3232,0.3235,0.3242,0.3289,0.3294,0.331,0.3268,0.3382,0.3386,0.3389,0.3405,0.3411,0.3417,0,0,0,0,0,0.295,0.2993,0.2996,0.3013,0.3105,0.3173,0.3184,0.3214,0.3207,0.3226,0.325,0.3234,0.3316,0.3293,0.3299,0.3315,0.338,0.3385,0.3389,0.3402,0.341,0.3417,0,0,0,0,0,0,0.2926,0.3001,0.3005,0.3069,0.3115,0.3177,0.3205,0.3218,0.3253,0.3251,0.3262,0.3269,0.332,0.3321,0.3294,0.3366,0.3345,0.335,0.3353,0.336,0.3366,0.3491,0.327,0,0,0,0,0,0.2925,0.2974,0.3033,0.3086,0.3106,0.315,0.3179,0.32,0.3243,0.3257,0.3277,0.3304,0.3345,0.3353,0.3392,0.3423,0.3549,0.3439,0.3445,0.345,0.3559,0.3802,0.3842,0.3406,0.3406,0.3406,0,0,0.2937,0.298,0.3012,0.3082,0.3117,0.3185,0.3165,0.3219,0.3276,0.3256,0.3327,0.3334,0.3365,0.3413,0.3433,0.3409,0.3617,0.3456,0.3459,0.3568,0.3812,0.3855,0.3894,0.3409,0.3409,0.3408,0,0,0.3029,0.3015,0.3109,0.3135,0.3195,0.3207,0.3222,0.328,0.3299,0.3351,0.337,0.3417,0.343,0.3494,0.3516,0.3587,0.3655,0.3548,0.3663,0.3894,0.3935,0.3972,0.4093,0.4141,0.3533,0.3533,0.3533,0,0.3057,0.3169,0.3143,0.3231,0.3275,0.3221,0.333,0.3331,0.3396,0.3461,0.3375,0.352,0.3497,0.3649,0.3648,0.3608,0.3725,0.3617,0.3909,0.3949,0.3988,0.4104,0.4157,0.3535,0.3534,0.3534,0.3534,0,0.324,0.3301,0.3346,0.3434,0.3457,0.3527,0.3524,0.355,0.3524,0.3562,0.3682,0.3667,0.3781,0.3726,0.3693,0.3934,0.3918,0.3899,0.3898,0.4034,0.4144,0.4199,0.3537,0.3536,0.3536,0.3535,0,0,0.3426,0.3479,0.3505,0.3556,0.3572,0.3622,0.3677,0.3775,0.386,0.385,0.4011,0.4022,0.403,0.4066,0.4027,0.4173,0.4437,0.4142,0.4153,0.4276,0.491,0.4777,0.4823,0.4481,0.4493,0.4502,0.4843,0,0.3611,0.3782,0.3772,0.3909,0.3979,0.3928,0.3992,0.4041,0.4039,0.4146,0.4161,0.4259,0.4146,0.4177,0.4326,0.4417,0.4603,0.4345,0.4755,0.4767,0.4648,0.4893,0.4768,0.5057,0.4898,0.4907,0.4914,0,0.3834,0.3908,0.4072,0.4138,0.4176,0.4229,0.4325,0.4377,0.4465,0.448,0.4588,0.4579,0.4753,0.4623,0.4967,0.4809,0.4921,0.4976,0.499,0.494,0.4745,0.4917,0.5165,0.5012,0.5,0.4993,0.4987,0,0.3972,0.4126,0.4249,0.427,0.4329,0.4406,0.4438,0.4504,0.4526,0.4703,0.4719,0.496,0.4987,0.5251,0.5253,0.5186,0.5609,0.5529,0.5546,0.553,0.5554,0.5522,0.5742,0.5923,0.5922,0.5921,0.592,0,0.4146,0.4249,0.4315,0.4368,0.4483,0.4523,0.4623,0.4685,0.4765,0.481,0.4894,0.4952,0.5156,0.5312,0.5435,0.5626,0.578,0.5689,0.5683,0.5534,0.5498,0.5465,0.5359,0.5934,0.5931,0.5929,0.5927,0,0.4206,0.428,0.4383,0.4492,0.4515,0.4574,0.4593,0.466,0.4754,0.4812,0.4862,0.4994,0.5228,0.538,0.574,0.5777,0.5887,0.606,0.5791,0.575,0.5617,0.5514,0.5631,0.5474,0.6237,0.6237,0.6236,0,0.4228,0.4299,0.4388,0.4402,0.4429,0.4493,0.4512,0.4613,0.4654,0.4799,0.4837,0.5049,0.515,0.5559,0.5779,0.6083,0.5882,0.6087,0.5979,0.5704,0.559,0.5316,0.5154,0.598,0.5977,0.5976,0.5974,0,0.4221,0.4251,0.4304,0.4326,0.4354,0.436,0.4418,0.4428,0.456,0.462,0.4731,0.4845,0.5213,0.5449,0.5785,0.5946,0.5806,0.6056,0.5934,0.5596,0.5174,0.4979,0.5551,0.5958,0.596,0.5961,0.5962,0.5962,0.4156,0.4157,0.4211,0.4214,0.4237,0.4222,0.4189,0.4269,0.4299,0.4389,0.4583,0.4726,0.5144,0.5615,0.5704,0.5798,0.5721,0.5751,0.5706,0.5494,0.5199,0.5664,0.5933,0.5935,0.5936,0.5937,0.5938,0,0.4046,0.4073,0.4087,0.4082,0.4052,0.4102,0.4114,0.4077,0.4076,0.4252,0.4355,0.4704,0.5016,0.5322,0.5626,0.5503,0.5276,0.5363,0.5019,0.492,0.5547,0.5386,0.535,0.535,0.535,0.5351,0.5351,0.5351,0.3996,0.3978,0.3989,0.3901,0.3889,0.381,0.3786,0.3767,0.3861,0.3942,0.4094,0.4314,0.4748,0.5231,0.5292,0.5193,0.4813,0.4651,0.4556,0.5048,0.508,0.5109,0.4937,0.4808,0.4808,0.3783,0.3776,0.377]},{"header":{"parameterUnit":"m.s-1","parameterCategory":2,"la1":30.2991,"la2":30.254,"lo1":-89.0895,"lo2":-89.0444,"dy":0.0017,"dx":0.0017,"nx":28,"ny":28,"refTime":"2025-06-10T03:00:00:Z","depth":"0","parameterNumber":3,"parameterNumberName":"V-component_of_CURRENTS"},"data":[0,0,0,0,0,0,0,0,0,0,0,0,0,0,0,0,0,0,0,0,0,0,0,0,0,0,0,0,0,0,0,0,0,0,0,0,0,0,0,0,0,0,0,0,0,0,0,0,0,0,0,0,0,0,0,0,0,0,-0.0265,-0.0265,0,-0.031,-0.031,-0.0311,-0.0323,-0.0322,-0.0322,-0.0322,-0.0398,-0.04,-0.0403,0,0,0,0,0,0,0,0,0,0,0,0,0,-0.0236,-0.0236,-0.0265,-0.0265,-0.0266,-0.031,-0.031,-0.0311,-0.0323,-0.0322,-0.0322,-0.0322,-0.0397,-0.04,-0.0403,0,0,0,0,0,0,0,0,0,0,0,0,0,-0.0262,-0.0236,-0.0264,-0.0276,-0.0278,-0.0309,-0.031,-0.0311,-0.0323,-0.0322,-0.0322,-0.0321,-0.0397,-0.04,-0.0403,-0.0436,0,0,-0.0414,-0.0416,0,0,0,0,0,0,0,0,-0.026,-0.0263,-0.0274,-0.0275,-0.0277,-0.0309,-0.0328,-0.0354,-0.0323,-0.0307,-0.0322,-0.0321,-0.0371,-0.0377,-0.0387,-0.0439,-0.0443,-0.0415,-0.0417,-0.0418,-0.0419,0,0,0,0,0,0,0,-0.0258,-0.0261,-0.0283,-0.0274,-0.0276,-0.0295,-0.0298,-0.0333,-0.0343,-0.0308,-0.0309,-0.0313,-0.0372,-0.0384,-0.0389,-0.0444,-0.0414,-0.0418,-0.042,-0.0421,-0.049,-0.0489,0,0,0,0,0,0,-0.0249,-0.026,-0.0282,-0.0285,-0.0266,-0.0296,-0.0299,-0.03,-0.0342,-0.0347,-0.0313,-0.0313,-0.0378,-0.0385,-0.0392,-0.0376,-0.0418,-0.0422,-0.0424,-0.049,-0.049,-0.0489,0,0,0,0,0,0,-0.0248,-0.0251,-0.028,-0.0273,-0.0277,-0.0296,-0.0298,-0.0301,-0.0312,-0.0345,-0.0351,-0.032,-0.0378,-0.0387,-0.041,-0.0382,-0.0423,-0.0426,-0.049,-0.049,-0.049,-0.0382,0,0,0,0,0,0,-0.0247,-0.025,-0.0252,-0.0272,-0.0277,-0.0291,-0.0298,-0.0303,-0.0315,-0.0315,-0.0353,-0.0359,-0.0378,-0.0405,-0.0414,-0.0387,-0.0429,-0.0491,-0.049,-0.049,-0.0386,-0.0378,-0.0371,0,0,0,0,0,-0.0246,-0.0238,-0.0252,-0.0255,-0.0278,-0.0291,-0.0295,-0.0308,-0.0316,-0.0317,-0.0337,-0.0358,-0.0407,-0.0408,-0.0418,-0.0392,-0.0491,-0.049,-0.049,-0.0389,-0.0379,-0.0371,0,0,0,0,0,0,-0.0213,-0.0239,-0.0254,-0.0252,-0.0271,-0.0292,-0.0293,-0.0309,-0.0328,-0.0328,-0.036,-0.0368,-0.038,-0.041,-0.0409,-0.0413,-0.0451,-0.0453,-0.0371,-0.0362,-0.0355,-0.0234,-0.0432,0,0,0,0,0,-0.0212,-0.0215,-0.0245,-0.0239,-0.025,-0.0277,-0.0285,-0.0296,-0.0314,-0.0322,-0.0347,-0.0371,-0.0388,-0.0393,-0.0424,-0.0427,-0.0362,-0.0418,-0.0411,-0.0404,-0.0314,-0.0164,-0.0131,-0.0487,-0.0487,-0.0487,0,0,-0.0187,-0.0209,-0.0205,-0.0234,-0.0249,-0.0234,-0.028,-0.0287,-0.0263,-0.0329,-0.0312,-0.0358,-0.0389,-0.0386,-0.0393,-0.0402,-0.029,-0.0403,-0.0396,-0.0308,-0.0159,-0.0123,-0.0091,-0.0487,-0.0487,-0.0487,0,0,-0.0113,-0.0171,-0.0132,-0.0156,-0.0182,-0.021,-0.0211,-0.0239,-0.0245,-0.0257,-0.0282,-0.0281,-0.0347,-0.0315,-0.032,-0.0289,-0.0266,-0.0341,-0.0185,-0.0043,-0.001,0.0021,0.0075,0.011,-0.0322,-0.0322,-0.0322,0,-0.0067,-0.0044,-0.0123,-0.0095,-0.0092,-0.019,-0.0136,-0.0169,-0.0196,-0.0153,-0.0239,-0.0215,-0.0284,-0.018,-0.0189,-0.026,-0.0202,-0.0217,-0.0023,0.0009,0.0039,0.0088,0.0125,-0.0317,-0.0318,-0.0318,-0.0319,0,0.0045,0.005,0.0063,0.0065,0.0049,0.0062,0.001,0.0005,-0.0042,-0.0038,0.0019,-0.0053,0.0001,-0.0066,-0.0131,0.0041,-0.0001,-0.0038,-0.0024,0.0084,0.0123,0.0161,-0.0309,-0.0311,-0.0313,-0.0314,0,0,0.0228,0.0164,0.0179,0.0199,0.0133,0.0149,0.0166,0.0206,0.0299,0.0221,0.0374,0.029,0.0286,0.0286,0.0216,0.0305,0.0473,0.0227,0.0231,0.0319,0.0753,0.059,0.0613,0.0484,0.0493,0.05,0.0671,0,0.0366,0.043,0.0371,0.0449,0.0471,0.0392,0.0441,0.0455,0.0448,0.0548,0.051,0.0582,0.0408,0.0443,0.0511,0.0494,0.059,0.0428,0.0607,0.0612,0.0489,0.066,0.0581,0.072,0.0708,0.0714,0.0718,0,0.0527,0.0538,0.0623,0.0645,0.0664,0.0703,0.0798,0.083,0.0912,0.0925,0.1005,0.0961,0.1055,0.0882,0.1006,0.0914,0.0874,0.0839,0.0845,0.0715,0.0524,0.0622,0.0788,0.0492,0.0776,0.0771,0.0767,0,0.0685,0.0732,0.0799,0.0797,0.0803,0.0877,0.0905,0.0978,0.1048,0.1198,0.1275,0.1373,0.1411,0.1438,0.1269,0.1193,0.1391,0.1278,0.1108,0.1091,0.1078,0.1046,0.1034,0.1448,0.1448,0.1447,0.1447,0,0.0831,0.09,0.0884,0.0918,0.1056,0.1034,0.121,0.1258,0.138,0.1516,0.1497,0.1617,0.1561,0.159,0.1464,0.1392,0.1556,0.122,0.1179,0.1091,0.106,0.0839,0.0655,0.1453,0.1452,0.1451,0.145,0,0.0961,0.0945,0.1028,0.1079,0.111,0.1212,0.1318,0.1456,0.1553,0.1737,0.1789,0.1858,0.1906,0.1794,0.1819,0.162,0.1394,0.1501,0.1337,0.1273,0.0799,0.0622,0.0674,0.0485,0.1406,0.1404,0.1402,0,0.102,0.1065,0.1128,0.1186,0.1211,0.1336,0.1431,0.1528,0.1659,0.1864,0.1974,0.2067,0.2134,0.2067,0.1797,0.1633,0.1357,0.1384,0.1229,0.0839,0.0616,0.052,0.0348,0.1225,0.1222,0.122,0.1217,0,0.1128,0.1141,0.1196,0.1294,0.1395,0.1506,0.1649,0.176,0.1903,0.2051,0.225,0.2335,0.2247,0.2071,0.1776,0.1586,0.1109,0.1319,0.104,0.0606,0.0401,0.017,0.0959,0.1195,0.1197,0.1198,0.12,0.1201,0.1202,0.1255,0.1308,0.1408,0.1518,0.1657,0.1764,0.1923,0.2107,0.2353,0.2433,0.2633,0.2349,0.1954,0.1568,0.0868,0.0926,0.0668,0.0527,0.0499,0.021,0.0881,0.0967,0.0968,0.0968,0.0969,0.097,0,0.1267,0.1317,0.1417,0.1527,0.1646,0.1689,0.1892,0.2016,0.2216,0.2507,0.2684,0.2784,0.2233,0.1705,0.081,0.0227,-0.0001,-0.0076,-0.0201,-0.0313,0.0425,0.0298,0.0094,0.0094,0.0094,0.0095,0.0095,0.0095,0.1305,0.139,0.1427,0.1599,0.1687,0.1853,0.1961,0.2158,0.2392,0.277,0.3033,0.3245,0.2978,0.1196,-0.0097,-0.0447,-0.0888,-0.0945,-0.1151,-0.0673,-0.0614,-0.0558,-0.0718,-0.1131,-0.1133,-0.1841,-0.1849,-0.1854]}],[{"header":{"parameterUnit":"m.s-1","parameterCategory":2,"la1":30.2991,"la2":30.254,"lo1":-89.0895,"lo2":-89.0444,"dy":0.0017,"dx":0.0017,"nx":28,"ny":28,"refTime":"2025-06-10T03:00:00:Z","depth":"2","parameterNumber":2,"parameterNumberName":"U-component_of_CURRENTS"},"data":[0,0,0,0,0,0,0,0,0,0,0,0,0,0,0,0,0,0,0,0,0,0,0,0,0,0,0,0,0,0,0,0,0,0,0,0,0,0,0,0,0,0,0,0,0,0,0,0,0,0,0,0,0,0,0,0,0,0,0.2233,0.2234,0,0.2294,0.2295,0.2295,0.2289,0.2289,0.2288,0.2287,0.2277,0.2278,0.2278,0,0,0,0,0,0,0,0,0,0,0,0,0,0.2134,0.2135,0.2233,0.2234,0.2235,0.2294,0.2295,0.2295,0.229,0.2289,0.2288,0.2287,0.2277,0.2278,0.2278,0,0,0,0,0,0,0,0,0,0,0,0,0,0.2182,0.2136,0.2232,0.2241,0.2242,0.2294,0.2295,0.2295,0.229,0.2289,0.2288,0.2287,0.2277,0.2278,0.2278,0.2304,0,0,0.228,0.228,0,0,0,0,0,0,0,0,0.2179,0.2185,0.2238,0.224,0.2242,0.2285,0.2256,0.2296,0.229,0.2269,0.2287,0.2286,0.2276,0.2276,0.2288,0.2304,0.2303,0.228,0.2281,0.2281,0.2281,0,0,0,0,0,0,0,0.2176,0.2183,0.2255,0.224,0.2242,0.2249,0.2254,0.2264,0.2275,0.2271,0.2271,0.2282,0.2275,0.2288,0.2288,0.2303,0.228,0.2281,0.2281,0.2281,0.2386,0.2388,0,0,0,0,0,0,0.2173,0.218,0.2253,0.2257,0.221,0.2252,0.2258,0.227,0.2276,0.2277,0.2283,0.2282,0.2287,0.2287,0.2287,0.2354,0.2281,0.2281,0.2282,0.2383,0.2386,0.2389,0,0,0,0,0,0,0.2171,0.2179,0.225,0.2221,0.2231,0.2255,0.2269,0.2272,0.2294,0.2287,0.2285,0.2303,0.2286,0.2286,0.2319,0.2352,0.2282,0.2282,0.2381,0.2384,0.2388,0.2465,0,0,0,0,0,0,0.2168,0.2178,0.2189,0.2221,0.2232,0.2292,0.2271,0.2274,0.2303,0.2302,0.2303,0.2301,0.2285,0.2318,0.2319,0.2352,0.2283,0.2378,0.2382,0.2387,0.246,0.2471,0.2481,0,0,0,0,0,0.2164,0.2185,0.2189,0.2198,0.2246,0.2293,0.2301,0.2312,0.2305,0.2325,0.2332,0.2301,0.2347,0.2321,0.2322,0.2355,0.2375,0.2381,0.2386,0.2455,0.2469,0.248,0,0,0,0,0,0,0.2152,0.2188,0.2193,0.2225,0.2261,0.2293,0.2317,0.2325,0.2348,0.2346,0.2332,0.2332,0.2371,0.236,0.2332,0.2401,0.2356,0.2362,0.2408,0.2421,0.2432,0.2434,0.2283,0,0,0,0,0,0.2155,0.2177,0.2217,0.2244,0.2265,0.2294,0.2316,0.2326,0.2351,0.236,0.2361,0.2371,0.2395,0.2405,0.2416,0.2456,0.2483,0.248,0.2491,0.2499,0.2505,0.2589,0.2608,0.2407,0.2407,0.2406,0,0,0.2155,0.2181,0.2192,0.2243,0.2271,0.2314,0.2304,0.2347,0.238,0.2356,0.2398,0.2405,0.2415,0.2459,0.2476,0.2453,0.2577,0.2506,0.2514,0.2514,0.2597,0.2616,0.2634,0.241,0.241,0.2409,0,0,0.2175,0.2197,0.2225,0.2263,0.2314,0.2336,0.2353,0.2394,0.2411,0.2459,0.2453,0.2488,0.2514,0.2533,0.2547,0.2626,0.2629,0.2628,0.2684,0.2767,0.2784,0.2799,0.2884,0.2906,0.2635,0.2635,0.2635,0,0.2172,0.2216,0.2243,0.2289,0.2322,0.235,0.2395,0.2427,0.247,0.2494,0.248,0.2553,0.2553,0.2624,0.265,0.2649,0.2699,0.2631,0.2781,0.2796,0.2811,0.2893,0.2916,0.264,0.2639,0.2639,0.2638,0,0.2216,0.2257,0.2284,0.2345,0.2387,0.2431,0.2481,0.2516,0.2537,0.2567,0.2636,0.2654,0.2698,0.2708,0.2703,0.2805,0.2811,0.2783,0.2746,0.2836,0.2917,0.294,0.2646,0.2644,0.2643,0.2642,0,0,0.2183,0.2289,0.2298,0.2334,0.2419,0.2452,0.2522,0.2589,0.2634,0.2679,0.2749,0.2797,0.281,0.2828,0.2833,0.2898,0.3045,0.2889,0.2891,0.2968,0.3248,0.3114,0.3126,0.305,0.3054,0.3057,0.3273,0,0.2204,0.2291,0.2342,0.2418,0.2465,0.2519,0.2582,0.2647,0.2698,0.2771,0.2818,0.2883,0.2859,0.289,0.2958,0.3024,0.3106,0.299,0.3153,0.3158,0.3024,0.3147,0.2906,0.3065,0.3295,0.3299,0.3302,0,0.2218,0.2279,0.2356,0.2454,0.2479,0.2527,0.262,0.2685,0.2797,0.2843,0.2925,0.2965,0.3082,0.3036,0.3219,0.3153,0.3212,0.3254,0.3263,0.3121,0.3065,0.3009,0.3098,0.334,0.3337,0.3334,0.3331,0,0.2165,0.2278,0.2334,0.237,0.2489,0.2527,0.2592,0.27,0.2766,0.2899,0.2967,0.3092,0.3177,0.3275,0.3379,0.3317,0.358,0.3501,0.3441,0.3434,0.3248,0.3215,0.3635,0.3635,0.3635,0.3634,0.3633,0,0.2155,0.2195,0.2311,0.234,0.2405,0.2503,0.2581,0.2661,0.2799,0.2894,0.3002,0.3115,0.3244,0.3397,0.3456,0.3545,0.3659,0.3481,0.3487,0.3268,0.3236,0.347,0.3448,0.3642,0.364,0.3639,0.3637,0,0.2077,0.2159,0.2219,0.2341,0.2378,0.2422,0.2566,0.2627,0.2773,0.2907,0.2962,0.3182,0.3407,0.3538,0.3732,0.3637,0.3734,0.3735,0.347,0.3436,0.3509,0.3488,0.3667,0.3664,0.3662,0.366,0.3658,0,0.2044,0.2069,0.2186,0.2221,0.2272,0.236,0.2421,0.2584,0.2667,0.2946,0.3013,0.3289,0.3459,0.3702,0.3672,0.3763,0.3834,0.3482,0.3275,0.3528,0.3517,0.35,0.3483,0.3095,0.3089,0.3084,0.308,0,0.197,0.2007,0.2057,0.2134,0.2195,0.227,0.2383,0.2452,0.2661,0.2819,0.3088,0.3263,0.3493,0.3481,0.3532,0.352,0.343,0.3371,0.3779,0.3083,0.2994,0.298,0.2982,0.3035,0.3039,0.3043,0.3045,0.3047,0.1895,0.1909,0.1978,0.2037,0.2107,0.218,0.2218,0.237,0.2531,0.2721,0.2954,0.3079,0.3161,0.3109,0.3109,0.3062,0.324,0.3032,0.3046,0.3067,0.2921,0.2827,0.2813,0.2816,0.2819,0.2821,0.2823,0,0.1805,0.1845,0.1886,0.1957,0.1981,0.2072,0.2184,0.2211,0.237,0.2515,0.269,0.2484,0.2537,0.2686,0.2543,0.2496,0.246,0.2408,0.2358,0.2405,0.2447,0.2266,0.1987,0.1984,0.1981,0.1979,0,0,0.1764,0.1769,0.1795,0.1811,0.1869,0.1889,0.1937,0.2015,0.2081,0.2101,0.2103,0.2258,0.2464,0.2097,0.2131,0.2052,0.2185,0.197,0.2646,0.2628,0.2665,0.2824,0.2601,0,0,0,0,0]},{"header":{"parameterUnit":"m.s-1","parameterCategory":2,"la1":30.2991,"la2":30.254,"lo1":-89.0895,"lo2":-89.0444,"dy":0.0017,"dx":0.0017,"nx":28,"ny":28,"refTime":"2025-06-10T03:00:00:Z","depth":"2","parameterNumber":3,"parameterNumberName":"V-component_of_CURRENTS"},"data":[0,0,0,0,0,0,0,0,0,0,0,0,0,0,0,0,0,0,0,0,0,0,0,0,0,0,0,0,0,0,0,0,0,0,0,0,0,0,0,0,0,0,0,0,0,0,0,0,0,0,0,0,0,0,0,0,0,0,-0.0481,-0.0482,0,-0.0568,-0.0569,-0.057,-0.0651,-0.0652,-0.0653,-0.0653,-0.0765,-0.0767,-0.0769,0,0,0,0,0,0,0,0,0,0,0,0,0,-0.0432,-0.0432,-0.0481,-0.0482,-0.0483,-0.0567,-0.0569,-0.057,-0.0651,-0.0652,-0.0653,-0.0654,-0.0764,-0.0767,-0.0769,0,0,0,0,0,0,0,0,0,0,0,0,0,-0.048,-0.0432,-0.0481,-0.0532,-0.0538,-0.0567,-0.0569,-0.057,-0.065,-0.0652,-0.0653,-0.0654,-0.0763,-0.0766,-0.077,-0.0763,0,0,-0.078,-0.0781,0,0,0,0,0,0,0,0,-0.0478,-0.0482,-0.0524,-0.0529,-0.0535,-0.0599,-0.0592,-0.0636,-0.065,-0.0609,-0.0653,-0.0655,-0.071,-0.0717,-0.0732,-0.0768,-0.0773,-0.078,-0.0782,-0.0783,-0.0784,0,0,0,0,0,0,0,-0.0474,-0.0479,-0.0517,-0.0525,-0.0532,-0.0567,-0.0575,-0.0601,-0.0652,-0.0613,-0.0618,-0.0625,-0.0713,-0.0729,-0.0736,-0.0775,-0.078,-0.0783,-0.0785,-0.0786,-0.0855,-0.0855,0,0,0,0,0,0,-0.0457,-0.0476,-0.0514,-0.0519,-0.0507,-0.0566,-0.0576,-0.0578,-0.0652,-0.0664,-0.0624,-0.0629,-0.0723,-0.0732,-0.074,-0.0765,-0.0783,-0.0786,-0.0788,-0.0856,-0.0855,-0.0855,0,0,0,0,0,0,-0.0455,-0.0459,-0.0511,-0.0499,-0.0508,-0.0565,-0.0568,-0.0579,-0.0606,-0.066,-0.0673,-0.0641,-0.0724,-0.0735,-0.0771,-0.0769,-0.0788,-0.0791,-0.0856,-0.0855,-0.0855,-0.0797,0,0,0,0,0,0,-0.0453,-0.0458,-0.046,-0.0497,-0.0508,-0.052,-0.0567,-0.058,-0.0607,-0.0614,-0.0678,-0.0689,-0.0726,-0.0765,-0.0774,-0.0774,-0.0793,-0.0856,-0.0856,-0.0855,-0.0799,-0.0795,-0.0791,0,0,0,0,0,-0.0451,-0.0442,-0.0459,-0.0465,-0.0506,-0.0519,-0.0527,-0.0574,-0.0606,-0.0606,-0.0658,-0.0688,-0.0771,-0.0768,-0.0778,-0.0779,-0.0856,-0.0856,-0.0855,-0.0801,-0.0796,-0.0792,0,0,0,0,0,0,-0.0426,-0.0451,-0.047,-0.0471,-0.049,-0.0532,-0.0542,-0.0571,-0.0613,-0.0629,-0.0685,-0.0699,-0.0728,-0.076,-0.0755,-0.0799,-0.0819,-0.082,-0.0774,-0.0769,-0.0766,-0.0767,-0.0796,0,0,0,0,0,-0.0418,-0.0419,-0.0446,-0.0448,-0.0455,-0.0499,-0.0515,-0.0542,-0.0581,-0.0602,-0.0646,-0.0695,-0.0731,-0.0756,-0.0788,-0.081,-0.0841,-0.0818,-0.0814,-0.0811,-0.0819,-0.0863,-0.0864,-0.0855,-0.0855,-0.0855,0,0,-0.0412,-0.0424,-0.0428,-0.0443,-0.0467,-0.0475,-0.0512,-0.0529,-0.0545,-0.0605,-0.0643,-0.0679,-0.0733,-0.0759,-0.0776,-0.0789,-0.0825,-0.0811,-0.0807,-0.0817,-0.0863,-0.0864,-0.0865,-0.0855,-0.0855,-0.0855,0,0,-0.0395,-0.0407,-0.0404,-0.0413,-0.0437,-0.0459,-0.046,-0.0499,-0.0525,-0.0555,-0.0606,-0.0642,-0.0697,-0.0735,-0.0763,-0.0757,-0.0798,-0.0766,-0.0754,-0.0796,-0.0797,-0.0799,-0.0815,-0.0819,-0.077,-0.0769,-0.0769,0,-0.0396,-0.039,-0.0404,-0.0403,-0.0414,-0.0448,-0.0451,-0.0474,-0.0521,-0.0541,-0.0561,-0.0647,-0.0688,-0.073,-0.0734,-0.0748,-0.0773,-0.0765,-0.0791,-0.0793,-0.0796,-0.0813,-0.0818,-0.0767,-0.0767,-0.0767,-0.0767,0,-0.0376,-0.0376,-0.0372,-0.0384,-0.0391,-0.0395,-0.0422,-0.0437,-0.0473,-0.0505,-0.0548,-0.0603,-0.0657,-0.0671,-0.0707,-0.0743,-0.0753,-0.0774,-0.08,-0.0793,-0.0811,-0.0817,-0.0763,-0.0764,-0.0764,-0.0765,0,0,-0.0381,-0.0365,-0.0369,-0.0361,-0.0383,-0.0381,-0.0399,-0.0424,-0.0432,-0.0485,-0.0503,-0.0577,-0.0609,-0.0643,-0.0683,-0.0726,-0.0757,-0.076,-0.0763,-0.0771,-0.0836,-0.0789,-0.0792,-0.0786,-0.0788,-0.0789,-0.0833,0,-0.0373,-0.0351,-0.0356,-0.0344,-0.0332,-0.036,-0.0369,-0.0394,-0.042,-0.0436,-0.0504,-0.0533,-0.0596,-0.0612,-0.0669,-0.0722,-0.0775,-0.0743,-0.0847,-0.085,-0.0806,-0.0798,-0.0766,-0.0799,-0.0839,-0.084,-0.0841,0,-0.0358,-0.0344,-0.0326,-0.0309,-0.031,-0.0315,-0.0324,-0.0333,-0.0367,-0.0388,-0.0437,-0.0477,-0.0539,-0.0589,-0.0708,-0.0684,-0.0768,-0.082,-0.0823,-0.0809,-0.0815,-0.0818,-0.0809,-0.0851,-0.0851,-0.085,-0.0849,0,-0.0331,-0.0321,-0.0302,-0.0299,-0.0292,-0.03,-0.0305,-0.0329,-0.0309,-0.035,-0.0324,-0.043,-0.0439,-0.0572,-0.0665,-0.07,-0.0774,-0.0835,-0.0879,-0.0876,-0.0885,-0.088,-0.0947,-0.0947,-0.0947,-0.0947,-0.0947,0,-0.0305,-0.0286,-0.0288,-0.0273,-0.0253,-0.0269,-0.0247,-0.0263,-0.0255,-0.0191,-0.0293,-0.0236,-0.0437,-0.0486,-0.063,-0.0735,-0.0751,-0.0876,-0.0889,-0.0859,-0.0852,-0.0934,-0.0932,-0.0949,-0.0948,-0.0948,-0.0948,0,-0.0255,-0.0261,-0.0231,-0.0234,-0.0231,-0.0216,-0.0183,-0.0145,-0.0155,-0.0063,-0.0061,-0.0092,-0.0143,-0.0317,-0.0492,-0.0648,-0.078,-0.0824,-0.0756,-0.076,-0.0877,-0.0871,-0.0914,-0.0913,-0.0912,-0.0911,-0.0911,0,-0.0217,-0.0201,-0.0191,-0.0165,-0.0165,-0.0141,-0.0103,-0.0102,-0.0027,0.0068,0.0148,0.0119,0.0175,-0.0054,-0.0352,-0.0599,-0.0671,-0.0764,-0.0847,-0.0867,-0.0876,-0.0872,-0.0868,-0.0834,-0.0833,-0.0832,-0.0831,0,-0.0151,-0.0161,-0.0134,-0.008,-0.0044,0.0026,0.0092,0.0179,0.0238,0.0363,0.0558,0.0611,0.0379,0.0161,-0.0223,-0.0411,-0.0729,-0.075,-0.079,-0.0832,-0.0791,-0.0799,-0.0798,-0.0821,-0.0822,-0.0823,-0.0823,-0.0824,-0.0106,-0.0072,-0.0041,0.0025,0.0085,0.0225,0.0338,0.0476,0.0673,0.0917,0.0887,0.0973,0.058,0.0143,-0.0173,-0.0568,-0.0612,-0.0788,-0.0792,-0.0797,-0.0765,-0.0723,-0.0734,-0.0734,-0.0734,-0.0735,-0.0735,0,-0.0037,0.0006,0.0073,0.0174,0.0302,0.0303,0.0505,0.0684,0.1003,0.1146,0.1324,0.1004,0.0722,0.03,-0.0269,-0.0618,-0.0678,-0.0716,-0.0736,-0.0744,-0.0751,-0.0718,-0.0674,-0.0674,-0.0674,-0.0674,0,0,-0.0002,0.0087,0.0138,0.0363,0.0453,0.0674,0.0824,0.1107,0.1258,0.1482,0.1487,0.1398,0.0816,0.0421,-0.0052,-0.0346,-0.0459,-0.0404,-0.0427,-0.0404,-0.0405,-0.0777,-0.0732,0,0,0,0,0]}],[{"header":{"parameterUnit":"m.s-1","parameterCategory":2,"la1":30.2991,"la2":30.254,"lo1":-89.0895,"lo2":-89.0444,"dy":0.0017,"dx":0.0017,"nx":28,"ny":28,"refTime":"2025-06-10T03:00:00:Z","depth":"4","parameterNumber":2,"parameterNumberName":"U-component_of_CURRENTS"},"data":[0,0,0,0,0,0,0,0,0,0,0,0,0,0,0,0,0,0,0,0,0,0,0,0,0,0,0,0,0,0,0,0,0,0,0,0,0,0,0,0,0,0,0,0,0,0,0,0,0,0,0,0,0,0,0,0,0,0,0.093,0.0931,0,0.0995,0.0995,0.0996,0.1072,0.1074,0.1075,0.1077,0.117,0.1171,0.1172,0,0,0,0,0,0,0,0,0,0,0,0,0,0.0833,0.0834,0.093,0.0931,0.0932,0.0995,0.0995,0.0996,0.1072,0.1074,0.1076,0.1078,0.117,0.1171,0.1172,0,0,0,0,0,0,0,0,0,0,0,0,0,0.088,0.0835,0.093,0.0981,0.0986,0.0995,0.0995,0.0996,0.1072,0.1074,0.1076,0.1079,0.1169,0.1171,0.1172,0.1136,0,0,0.1177,0.1178,0,0,0,0,0,0,0,0,0.0878,0.0883,0.0972,0.0977,0.0984,0.1031,0.0995,0.1046,0.1071,0.1035,0.1077,0.108,0.1127,0.1132,0.1133,0.114,0.1144,0.1177,0.1178,0.1179,0.118,0,0,0,0,0,0,0,0.0874,0.0881,0.0952,0.0973,0.098,0.0987,0.0996,0.1005,0.1065,0.1039,0.1045,0.1058,0.113,0.1132,0.1136,0.1146,0.1177,0.1179,0.118,0.118,0.1305,0.1307,0,0,0,0,0,0,0.0874,0.0878,0.095,0.0954,0.094,0.0987,0.0998,0.101,0.1065,0.1076,0.1056,0.1061,0.1128,0.1134,0.114,0.1236,0.1179,0.1181,0.1181,0.1303,0.1306,0.1308,0,0,0,0,0,0,0.0871,0.0879,0.0947,0.092,0.093,0.0987,0.1001,0.1011,0.1045,0.1078,0.109,0.1085,0.113,0.1138,0.1212,0.1235,0.1181,0.1183,0.13,0.1304,0.1307,0.1341,0,0,0,0,0,0,0.0868,0.0878,0.0887,0.092,0.0932,0.0975,0.0999,0.101,0.1049,0.1058,0.1106,0.1115,0.1132,0.121,0.1213,0.1237,0.1184,0.1297,0.1302,0.1306,0.1337,0.1346,0.1353,0,0,0,0,0,0.0864,0.0877,0.0886,0.0896,0.0942,0.0976,0.0982,0.1027,0.1049,0.1066,0.1128,0.1115,0.124,0.1213,0.1217,0.1241,0.1295,0.13,0.1305,0.1334,0.1344,0.1353,0,0,0,0,0,0,0.0849,0.0887,0.0898,0.0924,0.0955,0.0991,0.1018,0.1036,0.1091,0.1115,0.1143,0.1157,0.123,0.1235,0.1204,0.1295,0.1265,0.1271,0.1285,0.1295,0.1303,0.1338,0.1185,0,0,0,0,0,0.0844,0.0864,0.0898,0.0923,0.0942,0.0978,0.0998,0.1027,0.1078,0.1105,0.1148,0.1199,0.1245,0.1273,0.1311,0.135,0.1358,0.1373,0.138,0.1387,0.1422,0.1443,0.1455,0.1326,0.1326,0.1326,0,0,0.0844,0.0871,0.0881,0.092,0.0953,0.0977,0.0997,0.1042,0.1081,0.1104,0.1188,0.1227,0.1265,0.1329,0.136,0.1341,0.1427,0.1393,0.1398,0.1431,0.145,0.1462,0.1473,0.1329,0.1329,0.1328,0,0,0.0854,0.0883,0.0899,0.0926,0.0976,0.0996,0.1013,0.1066,0.1116,0.1189,0.1224,0.1291,0.1355,0.1392,0.1416,0.1486,0.1469,0.1493,0.1556,0.1575,0.1585,0.1594,0.161,0.1621,0.1493,0.1493,0.1493,0,0.0852,0.0879,0.091,0.0936,0.0965,0.1006,0.1031,0.1079,0.1156,0.1206,0.1234,0.1361,0.1388,0.146,0.151,0.1501,0.1516,0.1508,0.1583,0.1592,0.1601,0.1615,0.1626,0.1496,0.1495,0.1495,0.1495,0,0.0859,0.0895,0.0918,0.0958,0.0987,0.1025,0.1084,0.1141,0.1208,0.1258,0.1373,0.1432,0.1512,0.1522,0.1552,0.1628,0.1619,0.1586,0.155,0.1616,0.1627,0.1638,0.1499,0.1498,0.1497,0.1497,0,0,0.0823,0.0903,0.0913,0.0944,0.1007,0.1031,0.111,0.1187,0.1259,0.1349,0.1449,0.1546,0.1595,0.1629,0.1653,0.169,0.1764,0.1689,0.1688,0.1692,0.182,0.1725,0.1727,0.1743,0.1745,0.1747,0.1798,0,0.0824,0.0871,0.0913,0.0968,0.0999,0.1068,0.1141,0.122,0.1314,0.1424,0.1507,0.162,0.1626,0.1695,0.1727,0.1769,0.1798,0.1755,0.1771,0.1772,0.1667,0.1738,0.1755,0.1806,0.1808,0.181,0.1811,0,0.0803,0.0849,0.0899,0.0995,0.1017,0.1062,0.1184,0.1254,0.1404,0.1496,0.1607,0.1688,0.1799,0.1789,0.1872,0.1849,0.186,0.187,0.187,0.1786,0.1698,0.1732,0.183,0.1829,0.1827,0.1826,0.1825,0,0.0744,0.0833,0.0879,0.0907,0.1018,0.108,0.1148,0.1284,0.1373,0.1561,0.1648,0.1772,0.1866,0.1899,0.1948,0.193,0.2015,0.1965,0.1878,0.187,0.1921,0.191,0.2016,0.2016,0.2016,0.2016,0.2016,0,0.0713,0.0748,0.0869,0.0895,0.0974,0.1066,0.1176,0.1274,0.1439,0.1539,0.1688,0.1779,0.1909,0.1972,0.198,0.1969,0.2028,0.1922,0.1888,0.1933,0.1924,0.1927,0.1916,0.2018,0.2017,0.2017,0.2017,0,0.0626,0.0707,0.0761,0.0896,0.0948,0.1001,0.1173,0.125,0.1423,0.1559,0.1637,0.1823,0.192,0.1993,0.2066,0.2004,0.2003,0.1974,0.2042,0.2005,0.1838,0.1829,0.1893,0.1891,0.1888,0.1886,0.1885,0,0.0579,0.0604,0.0734,0.0782,0.0851,0.0964,0.1042,0.1226,0.1311,0.1552,0.1597,0.1786,0.1887,0.1901,0.1983,0.1998,0.1968,0.1955,0.1898,0.1872,0.1832,0.1826,0.182,0.1881,0.1881,0.188,0.1879,0,0.0489,0.0543,0.059,0.0692,0.078,0.0867,0.0999,0.1057,0.1269,0.1426,0.1561,0.1663,0.1766,0.1844,0.1888,0.1877,0.1962,0.193,0.1934,0.188,0.1857,0.1819,0.1815,0.1872,0.1873,0.1873,0.1874,0,0.0413,0.0424,0.0509,0.059,0.0683,0.0761,0.0843,0.0971,0.1088,0.1362,0.1391,0.1575,0.174,0.1779,0.1796,0.1818,0.1791,0.1724,0.1738,0.1748,0.1681,0.163,0.157,0,0,0,0,0,0.0345,0.0364,0.0415,0.0507,0.0588,0.0664,0.0811,0.0904,0.1101,0.1159,0.1292,0.1391,0.1512,0.1595,0.1591,0.1716,0.1774,0.1702,0.1697,0.1828,0.1837,0.1774,0,0,0,0,0,0,0.0302,0.0339,0.0376,0.0423,0.0475,0.0571,0.0661,0.0795,0.0851,0.1057,0.1123,0.1296,0.1414,0.1496,0.1558,0.1585,0.1553,0.1819,0.1816,0.1823,0.1831,0.1838,0.1777,0,0,0,0,0]},{"header":{"parameterUnit":"m.s-1","parameterCategory":2,"la1":30.2991,"la2":30.254,"lo1":-89.0895,"lo2":-89.0444,"dy":0.0017,"dx":0.0017,"nx":28,"ny":28,"refTime":"2025-06-10T03:00:00:Z","depth":"4","parameterNumber":3,"parameterNumberName":"V-component_of_CURRENTS"},"data":[0,0,0,0,0,0,0,0,0,0,0,0,0,0,0,0,0,0,0,0,0,0,0,0,0,0,0,0,0,0,0,0,0,0,0,0,0,0,0,0,0,0,0,0,0,0,0,0,0,0,0,0,0,0,0,0,0,0,0.0227,0.0226,0,0.0176,0.0176,0.0175,0.0127,0.0127,0.0126,0.0126,0.0054,0.0053,0.0051,0,0,0,0,0,0,0,0,0,0,0,0,0,0.0244,0.0245,0.0227,0.0226,0.0226,0.0176,0.0176,0.0175,0.0127,0.0127,0.0126,0.0125,0.0055,0.0053,0.0051,0,0,0,0,0,0,0,0,0,0,0,0,0,0.0219,0.0245,0.0227,0.0197,0.0194,0.0176,0.0176,0.0175,0.0127,0.0127,0.0126,0.0125,0.0055,0.0053,0.0051,0.0053,0,0,0.0044,0.0043,0,0,0,0,0,0,0,0,0.022,0.0218,0.0202,0.0199,0.0195,0.0158,0.0155,0.0133,0.0127,0.0152,0.0126,0.0125,0.0088,0.0083,0.0074,0.005,0.0047,0.0044,0.0043,0.0042,0.0041,0,0,0,0,0,0,0,0.0222,0.022,0.0206,0.0201,0.0197,0.0173,0.0169,0.0151,0.0124,0.0149,0.0146,0.0142,0.0086,0.0077,0.0072,0.0046,0.0044,0.0042,0.0041,0.004,-0.0017,-0.0017,0,0,0,0,0,0,0.0233,0.0222,0.0208,0.0205,0.0207,0.0173,0.0168,0.017,0.0124,0.0117,0.0143,0.014,0.0081,0.0075,0.007,0.0063,0.0042,0.004,0.0039,-0.0016,-0.0017,-0.0017,0,0,0,0,0,0,0.0234,0.0233,0.021,0.0212,0.0208,0.0174,0.0176,0.0169,0.0164,0.012,0.0111,0.0145,0.008,0.0073,0.0053,0.006,0.0039,0.0037,-0.0016,-0.0017,-0.0017,0.0054,0,0,0,0,0,0,0.0235,0.0234,0.0245,0.0213,0.0208,0.0209,0.0177,0.0169,0.0163,0.0159,0.0119,0.0111,0.0079,0.0056,0.0051,0.0057,0.0035,-0.0016,-0.0016,-0.0017,0.0052,0.0056,0.006,0,0,0,0,0,0.0236,0.0249,0.0246,0.0245,0.0223,0.021,0.0205,0.0177,0.0164,0.0169,0.0134,0.0113,0.0049,0.0055,0.0048,0.0054,-0.0016,-0.0016,-0.0017,0.005,0.0055,0.006,0,0,0,0,0,0,0.0257,0.0245,0.0241,0.0249,0.0237,0.0202,0.0202,0.0188,0.0165,0.0159,0.0117,0.0107,0.0088,0.0061,0.0069,0.0033,0.001,0.0009,0.0063,0.0068,0.0072,0.0066,0.0034,0,0,0,0,0,0.0271,0.028,0.0262,0.0269,0.0266,0.024,0.0233,0.0216,0.0189,0.0179,0.0149,0.0112,0.0081,0.0068,0.0036,0.0027,-0.0027,0.0022,0.0026,0.003,0.0018,-0.0066,-0.007,-0.0019,-0.0019,-0.0019,0,0,0.0279,0.0275,0.0279,0.0275,0.0261,0.0263,0.0233,0.0227,0.0228,0.0175,0.0166,0.0127,0.008,0.0061,0.0051,0.0042,-0.0009,0.0029,0.0033,0.0019,-0.0067,-0.0072,-0.0076,-0.0019,-0.0019,-0.0019,0,0,0.0295,0.0299,0.0311,0.031,0.0301,0.0284,0.0289,0.0263,0.0253,0.0242,0.0197,0.0161,0.0126,0.0086,0.0063,0.007,0.0013,0.0064,0.0083,0.0003,-0.0002,-0.0007,-0.0061,-0.0072,0.0068,0.0068,0.0068,0,0.0302,0.0323,0.0311,0.0323,0.0328,0.0299,0.0314,0.03,0.0271,0.0258,0.0246,0.0162,0.0133,0.009,0.0092,0.008,0.0028,0.0076,0.0008,0.0002,-0.0005,-0.0059,-0.0072,0.0071,0.0071,0.0071,0.007,0,0.033,0.0348,0.0354,0.0363,0.0366,0.0374,0.0359,0.0355,0.0338,0.0309,0.0267,0.0213,0.0156,0.0148,0.0125,0.0069,0.0047,0.0023,0.0,-0.0006,-0.0062,-0.0077,0.0076,0.0075,0.0074,0.0073,0,0,0.0332,0.0367,0.037,0.0395,0.0394,0.0401,0.0404,0.0391,0.0384,0.0341,0.0311,0.0257,0.0208,0.0177,0.0136,0.0073,0.0002,0.0036,0.003,-0.001,-0.0166,-0.0136,-0.0149,-0.0038,-0.0041,-0.0043,-0.0179,0,0.0355,0.0404,0.0406,0.0447,0.0474,0.0459,0.0466,0.0448,0.0417,0.0378,0.0305,0.026,0.0226,0.0198,0.0127,0.0028,-0.0038,0.0041,-0.0162,-0.0168,-0.0135,-0.0165,-0.0051,-0.019,-0.0193,-0.0196,-0.0197,0,0.0386,0.0417,0.0474,0.0511,0.0518,0.0534,0.0538,0.0537,0.0472,0.0442,0.0365,0.0295,0.0201,0.0171,-0.0014,0.0035,-0.0062,-0.0139,-0.0147,-0.0159,-0.0165,-0.0191,-0.0225,-0.0222,-0.022,-0.0219,-0.0217,0,0.0424,0.0465,0.0521,0.0537,0.0566,0.0586,0.059,0.0555,0.0555,0.0473,0.0444,0.0308,0.0247,0.0093,-0.0054,-0.0048,-0.0262,-0.0277,-0.0343,-0.0341,-0.0358,-0.0351,-0.0422,-0.0422,-0.0422,-0.0421,-0.0421,0,0.0465,0.0505,0.055,0.0586,0.0633,0.0637,0.0665,0.0643,0.0605,0.0587,0.0478,0.0424,0.022,0.008,-0.0064,-0.024,-0.0276,-0.0354,-0.0385,-0.0321,-0.0309,-0.0367,-0.0359,-0.0427,-0.0425,-0.0424,-0.0424,0,0.05,0.0536,0.06,0.0647,0.0663,0.0698,0.0728,0.0733,0.07,0.0668,0.0643,0.0494,0.0306,0.0112,-0.0138,-0.0233,-0.0414,-0.0466,-0.0367,-0.0388,-0.0439,-0.0426,-0.0572,-0.0572,-0.0572,-0.0572,-0.0573,0,0.0522,0.0565,0.0645,0.068,0.0705,0.0756,0.0781,0.0779,0.0778,0.0709,0.0684,0.0514,0.0392,0.0072,-0.0136,-0.0415,-0.0443,-0.052,-0.0501,-0.0445,-0.046,-0.0446,-0.0433,-0.0573,-0.0573,-0.0573,-0.0573,0,0.0543,0.0582,0.0629,0.0707,0.0757,0.0807,0.0841,0.0851,0.0833,0.0816,0.0708,0.0538,0.0329,0.0072,-0.0133,-0.0333,-0.0465,-0.0524,-0.0525,-0.0508,-0.0448,-0.046,-0.0446,-0.0574,-0.0574,-0.0574,-0.0574,0,0.0542,0.0575,0.0643,0.0705,0.077,0.0815,0.0847,0.0842,0.0845,0.0781,0.0743,0.0525,0.04,0.0114,-0.0083,-0.027,-0.0322,-0.036,-0.0371,-0.0372,-0.0267,-0.0158,-0.0235,0,0,0,0,0,0.0529,0.0562,0.0624,0.0691,0.076,0.0798,0.0855,0.0878,0.0877,0.0814,0.0784,0.0591,0.0294,0.0156,-0.003,-0.0109,-0.0365,-0.0331,-0.0417,-0.0579,-0.0578,-0.0484,0,0,0,0,0,0,0.0513,0.0572,0.061,0.0664,0.0704,0.0772,0.0812,0.0822,0.0789,0.0771,0.061,0.0558,0.0257,0.0389,-0.0036,-0.0093,-0.0166,-0.0467,-0.047,-0.0579,-0.0578,-0.0577,-0.0481,0,0,0,0,0]}]]